Location: Cambridge (historical)
(38.6883°N, 119.0140°W)
Time: 13:08:05
(UTC+00:00)

Meteor PRIRODA - Pass Details

Date: 29 October 2020
Orbit: 491 x 509 km, 97.6° (Epoch: 01 December)

Event Time Altitude Azimuth Distance (km) Brightness Sun altitude
Rises 13:10:56 0° 12° (NNE) 2,587 7.3 -14.1°
Reaches altitude 10° 13:13:01 10° 12° (NNE) 1,702 6.4 -13.7°
Maximum altitude 13:16:41 88° 105° (ESE) 504 3.6 -13.0°
Drops below altitude 10° 13:20:21 10° 192° (SSW) 1,699 6.3 -12.3°
Sets 13:22:25 0° 193° (SSW) 2,581 7.2 -11.9°
